Wind_Speed
33 34 44 41 34 16 22 22 23 25 27 22 28 27 29 26 22 22 24 22 25 26 27 31 31 30 30 32 33 33 33 33 34 33 33 32 32 30 31 31 32 33 34 36
34 39 36 34 35 20 17 19 25 17 21 23 20 26 31 32 37 30 25 22 24 26 29 31 33 35 34 33 34 35 34 35 36 38 39 40 39 38 36 37 38 39 41 41
29 28 31 25 34 27 18 17 18 20 15 24 19 22 24 32 35 33 33 30 30 31 33 34 34 32 30 30 32 34 34 34 35 37 38 38 38 39 39 40 38 36 38 39
15 19 27 27 32 25 19 15 8 16 21 15 16 6 21 30 33 37 36 32 30 33 35 36 34 31 29 31 32 31 32 32 33 34 34 34 35 35 34 36 37 35 34 35
14 26 28 31 30 25 19 15 11 17 18 13 15 12 29 14 34 36 34 33 33 34 35 35 34 31 30 30 29 30 29 28 28 28 29 29 29 31 32 32 34 34 32 33
15 18 22 24 28 28 16 11 13 19 12 5 18 23 12 29 24 26 33 35 36 36 35 31 31 28 26 26 25 25 25 24 24 24 25 26 27 27 27 27 27 27 28 29
15 13 15 26 25 25 27 24 5 2 3 5 13 18 28 12 20 23 25 27 29 30 30 23 22 22 20 19 19 21 22 23 22 23 25 26 26 26 27 27 27 28 29 30
9 7 13 12 16 31 29 22 9 6 4 4 11 15 21 26 19 20 23 24 24 25 22 21 20 19 18 18 19 21 22 23 23 24 27 28 28 29 30 30 30 31 32 32
10 5 12 13 18 17 22 16 13 2 4 3 10 11 11 16 23 22 20 19 21 20 18 18 17 17 18 18 19 20 22 23 24 26 29 30 30 31 31 32 33 34 34 35
8 6 6 13 15 20 21 20 10 7 2 4 7 8 11 24 25 26 25 21 18 17 17 16 17 19 19 20 21 22 23 26 28 29 30 31 32 32 33 34 34 34 33 33
4 3 6 13 17 26 21 26 13 8 6 4 2 6 10 21 21 28 24 22 20 18 17 18 19 20 21 23 25 26 26 28 29 28 28 28 27 27 26 25 26 27 27 26
10 5 7 4 5 12 27 24 27 8 6 5 2 4 6 11 20 26 24 22 17 14 15 16 19 21 23 25 26 27 27 26 25 23 23 22 21 20 20 20 20 20 21 21
7 6 8 4 7 11 15 13 19 26 10 7 3 4 3 5 19 23 20 14 12 11 13 16 19 21 24 26 25 24 23 21 20 18 17 17 18 19 18 18 19 19 21 22
7 7 4 8 2 8 20 23 20 19 13 12 11 8 10 7 13 18 14 15 12 11 15 16 19 20 19 20 19 19 18 17 15 15 15 16 17 17 16 16 17 17 20 19
11 9 11 9 7 6 8 12 27 31 29 17 14 13 12 12 11 15 16 15 12 15 16 19 20 19 18 18 16 15 14 13 13 12 12 13 13 14 15 16 17 17 16 16
15 8 10 11 13 12 14 14 17 24 28 31 20 18 15 19 17 19 20 14 15 17 19 20 19 19 18 14 14 14 15 13 12 10 10 11 12 14 15 14 12 11 11 11
12 11 9 5 7 8 14 21 24 24 24 25 32 26 21 25 25 22 19 17 17 17 17 16 15 15 13 13 14 16 17 15 13 12 11 13 12 12 9 7 9 6 6 9
12 10 9 4 5 2 4 6 7 12 23 22 20 23 28 24 23 23 23 17 15 15 14 13 12 12 13 13 14 17 18 17 14 14 12 9 9 8 6 5 4 3 1 3
15 13 6 5 8 12 13 11 11 8 9 17 19 16 20 20 24 22 17 14 13 11 11 12 13 14 15 15 16 17 19 17 16 13 10 9 9 7 4 3 6 7 7 8
19 14 13 9 4 5 3 3 5 8 8 8 16 20 24 20 19 11 11 9 8 8 9 11 12 13 13 12 11 9 10 11 11 11 9 7 5 8 7 7 5 6 6 6
18 19 19 14 8 9 12 7 6 6 4 6 9 20 22 18 11 10 10 9 9 9 9 10 10 10 8 7 6 9 8 9 9 8 9 10 9 7 6 5 4 3 3 3
16 13 14 16 7 9 10 9 11 8 5 6 7 10 10 9 10 10 9 8 8 9 10 9 9 8 6 5 4 5 6 7 8 11 12 10 7 5 5 4 2 1 1 1
12 15 9 11 7 5 5 4 7 10 6 7 8 12 13 14 12 11 10 10 10 10 11 8 8 6 5 4 2 3 6 8 10 10 8 7 6 5 4 4 3 3 4 3
15 12 14 10 10 14 10 8 7 10 12 14 11 12 12 14 16 13 11 11 12 11 10 9 7 6 5 5 3 4 5 6 7 7 6 5 5 5 5 5 5 5 5 6
19 16 16 23 19 10 9 8 8 9 10 12 13 17 17 16 17 15 12 14 13 14 13 10 7 7 7 7 7 7 6 6 6 6 6 6 6 6 7 8 8 8 7 7
21 22 22 21 12 16 13 11 6 9 11 14 14 14 16 17 16 15 16 15 15 17 16 16 15 11 9 8 10 9 8 9 9 9 8 8 8 9 10 10 10 10 9 9
Wind_Direction
176 179 189 191 193 192 209 210 203 218 218 225 240 236 222 236 238 232 226 229 235 236 240 243 243 245 244 247 248 247 251 258 265 267 266 259 257 257 262 269 273 275 276 280
177 192 192 193 200 191 185 204 211 204 215 227 244 244 235 224 243 246 241 233 233 231 236 241 242 243 245 249 251 252 250 251 254 257 261 268 273 270 264 261 262 265 272 277
171 201 192 194 195 191 195 215 199 218 217 216 228 247 237 229 228 237 243 239 238 238 242 247 251 252 254 253 252 254 255 256 257 259 262 264 266 270 273 274 271 266 264 266
184 177 188 191 195 202 210 196 261 225 196 193 212 259 253 240 226 231 237 239 238 241 242 247 252 254 255 255 256 256 255 255 256 258 261 263 267 267 266 267 270 269 265 262
137 171 184 195 193 193 205 207 232 199 192 203 223 234 251 235 226 228 237 240 241 239 242 246 251 253 254 255 255 256 257 258 259 260 261 264 265 267 270 269 269 270 267 263
161 158 190 189 201 201 180 167 191 207 210 248 226 215 249 231 223 225 228 233 236 241 244 245 247 249 249 250 252 254 256 257 257 258 260 261 262 264 268 271 271 271 273 274
151 189 202 200 196 198 187 163 121 141 187 224 227 217 230 241 231 230 228 237 238 239 244 242 241 243 243 247 249 251 253 255 256 258 259 259 260 263 266 269 273 275 276 277
151 170 186 206 204 218 201 180 172 179 194 221 241 224 231 238 237 231 230 232 233 237 239 236 236 242 244 245 248 253 256 259 260 260 262 264 265 266 267 268 270 272 273 274
188 180 202 204 212 208 196 190 193 207 239 166 202 232 230 227 211 228 230 237 237 233 227 230 236 243 248 250 253 256 259 262 264 265 266 269 271 271 272 272 272 272 273 274
180 135 212 210 216 214 186 185 188 216 181 238 229 220 209 199 212 222 226 228 224 222 223 230 238 246 251 254 257 261 266 270 270 271 273 271 271 271 272 271 272 271 271 271
109 102 138 175 202 204 191 194 196 206 233 195 192 238 209 228 235 231 227 227 229 229 234 241 248 254 259 262 266 269 271 273 274 273 273 272 272 271 272 273 271 271 273 275
187 188 151 177 186 189 211 207 204 199 202 229 254 249 209 211 222 223 226 227 224 227 240 251 259 264 267 269 270 271 272 272 271 271 271 272 271 270 271 272 274 276 277 278
183 164 133 176 211 219 211 205 211 216 241 234 198 243 235 223 198 209 214 212 215 233 251 261 267 271 272 271 270 268 267 266 266 268 269 270 272 273 275 277 279 279 279 277
201 195 211 197 188 195 211 206 209 214 217 228 238 202 211 209 203 200 200 208 229 261 273 278 283 281 279 273 265 259 259 260 262 264 267 270 273 275 276 282 280 274 281 278
210 209 215 227 233 231 227 225 218 223 225 220 223 216 237 242 234 217 239 238 256 282 288 291 289 287 286 277 257 249 248 254 258 262 266 273 277 279 276 280 281 280 276 277
219 227 234 244 246 254 256 244 232 232 233 236 227 218 225 219 228 241 242 255 279 287 293 290 286 287 288 265 248 242 241 247 255 260 273 283 287 290 286 282 275 282 290 288
225 227 228 240 220 252 270 250 240 240 242 237 228 222 205 208 217 226 242 264 269 281 289 287 288 288 279 264 251 242 245 252 258 260 274 283 290 291 279 267 278 284 277 293
221 223 214 218 212 267 258 259 251 250 244 237 236 230 219 221 228 242 253 260 271 279 283 281 286 288 280 272 263 251 251 253 258 258 272 274 278 269 262 273 262 276 311 53
214 211 222 216 223 283 260 266 259 251 257 236 229 216 196 216 227 237 250 258 269 275 289 286 289 291 289 277 269 264 253 251 249 254 257 253 266 265 240 145 109 95 81 82
205 209 216 211 243 238 233 250 245 231 246 240 222 200 202 217 227 229 241 245 261 273 290 291 289 295 291 279 268 248 241 243 237 236 233 238 208 153 134 118 100 96 96 91
205 208 216 221 242 270 230 243 213 205 254 223 194 194 206 219 220 218 225 255 272 280 300 310 303 308 300 293 276 250 239 222 217 209 198 180 161 149 134 116 114 112 103 86
199 198 216 225 234 258 218 210 213 236 223 202 187 190 196 198 207 221 236 253 273 288 290 298 310 314 316 314 284 239 223 212 198 180 170 169 162 158 144 145 156 170 207 259
215 213 205 212 225 216 189 229 250 239 217 222 223 220 210 211 216 230 240 251 265 281 284 298 308 294 304 300 248 176 164 162 166 172 177 175 174 174 184 188 208 238 257 283
237 239 225 235 252 254 253 258 262 245 238 236 241 253 250 236 220 220 226 243 251 268 274 288 292 292 270 258 232 204 186 180 190 200 196 196 204 211 224 231 239 250 263 277
232 233 242 247 246 242 229 248 246 245 238 239 255 246 252 254 249 242 242 243 257 254 255 273 302 301 281 261 251 235 218 220 225 227 225 227 235 243 250 252 255 258 266 281
243 243 244 253 263 245 258 251 247 251 252 251 256 250 252 249 248 251 249 250 249 245 260 264 271 271 279 266 253 250 242 241 236 233 233 232 240 250 256 260 263 266 274 283
Height
3057 3062 3061 3069 3077 3084 3090 3096 3099 3101 3104 3107 3106 3111 3115 3120 3120 3122 3126 3129 3131 3134 3136 3135 3137 3140 3143 3144 3145 3149 3150 3149 3149 3151 3153 3156 3158 3160 3159 3158 3159 3158 3159 3158
3057 3058 3066 3073 3079 3086 3090 3092 3095 3100 3102 3104 3105 3104 3109 3114 3115 3118 3122 3124 3126 3127 3127 3128 3130 3132 3135 3138 3140 3141 3143 3146 3147 3147 3146 3146 3147 3149 3152 3154 3154 3154 3152 3152
3054 3060 3067 3072 3079 3084 3088 3090 3093 3097 3097 3102 3102 3103 3103 3105 3109 3111 3114 3118 3120 3121 3121 3122 3124 3127 3130 3131 3132 3134 3135 3137 3138 3139 3139 3140 3141 3140 3141 3142 3144 3146 3145 3144
3056 3062 3067 3072 3078 3084 3086 3089 3092 3093 3096 3098 3102 3098 3096 3099 3101 3103 3106 3110 3112 3113 3114 3115 3118 3121 3123 3124 3125 3126 3128 3129 3131 3131 3132 3132 3132 3132 3134 3133 3132 3134 3134 3134
3056 3062 3067 3071 3077 3081 3086 3089 3092 3093 3096 3097 3098 3100 3088 3092 3092 3096 3099 3102 3104 3106 3107 3109 3111 3114 3115 3116 3117 3118 3120 3121 3123 3123 3124 3124 3125 3124 3123 3124 3123 3124 3125 3125
3058 3061 3067 3072 3076 3081 3085 3088 3091 3093 3094 3096 3092 3094 3085 3084 3085 3090 3093 3094 3096 3098 3100 3104 3104 3106 3108 3109 3111 3112 3114 3115 3116 3117 3118 3118 3118 3118 3117 3116 3115 3116 3116 3116
3060 3064 3066 3071 3075 3080 3083 3085 3089 3094 3094 3088 3087 3090 3078 3082 3083 3085 3087 3089 3091 3092 3094 3098 3099 3100 3102 3104 3106 3107 3107 3108 3111 3111 3111 3111 3112 3112 3111 3110 3110 3109 3109 3109
3060 3065 3065 3068 3071 3074 3077 3080 3080 3086 3086 3083 3086 3079 3074 3077 3079 3081 3082 3084 3086 3088 3091 3093 3094 3096 3099 3100 3101 3101 3102 3102 3104 3104 3103 3104 3104 3104 3103 3103 3103 3102 3102 3101
3057 3060 3063 3065 3068 3070 3070 3076 3078 3080 3081 3080 3076 3073 3072 3072 3074 3075 3077 3079 3081 3084 3087 3089 3091 3093 3094 3095 3096 3096 3096 3096 3097 3096 3096 3096 3096 3096 3096 3095 3095 3094 3094 3093
3055 3059 3059 3061 3064 3066 3068 3074 3079 3079 3081 3078 3070 3069 3065 3066 3069 3071 3073 3075 3078 3080 3083 3085 3087 3089 3090 3090 3091 3091 3091 3090 3089 3089 3089 3088 3087 3086 3086 3085 3085 3084 3084 3084
3054 3055 3060 3060 3060 3062 3067 3068 3073 3075 3074 3073 3072 3065 3063 3064 3066 3067 3070 3073 3076 3078 3080 3081 3083 3084 3085 3085 3085 3084 3084 3082 3081 3081 3080 3079 3078 3078 3078 3077 3077 3077 3077 3077
3055 3055 3058 3060 3060 3061 3064 3065 3067 3069 3071 3068 3067 3063 3060 3061 3064 3066 3068 3070 3073 3075 3076 3078 3078 3079 3079 3078 3078 3077 3076 3075 3074 3073 3073 3072 3072 3072 3071 3071 3071 3071 3071 3070
3053 3055 3057 3060 3062 3060 3060 3061 3063 3066 3066 3064 3065 3061 3059 3059 3062 3064 3066 3068 3070 3072 3073 3074 3073 3073 3072 3070 3070 3069 3068 3068 3067 3067 3066 3067 3066 3066 3066 3065 3065 3065 3065 3064
3052 3052 3052 3053 3052 3053 3055 3057 3059 3061 3061 3061 3060 3057 3058 3059 3060 3062 3065 3067 3068 3069 3069 3068 3067 3066 3064 3063 3062 3062 3062 3062 3062 3062 3062 3062 3061 3062 3061 3060 3059 3059 3059 3058
3051 3050 3051 3051 3051 3051 3052 3052 3054 3054 3056 3057 3057 3056 3055 3057 3059 3061 3062 3064 3064 3064 3063 3062 3060 3059 3058 3057 3056 3057 3057 3057 3058 3057 3057 3057 3057 3056 3056 3055 3054 3053 3053 3052
3047 3048 3048 3048 3049 3049 3048 3048 3048 3048 3050 3051 3053 3053 3054 3056 3057 3057 3059 3060 3060 3059 3058 3057 3055 3054 3052 3051 3051 3052 3053 3053 3053 3053 3053 3053 3053 3052 3050 3049 3050 3049 3048 3046
3045 3045 3046 3045 3046 3046 3044 3039 3039 3040 3040 3043 3044 3048 3051 3052 3053 3054 3056 3057 3057 3056 3054 3052 3051 3049 3048 3047 3047 3047 3048 3049 3049 3049 3049 3049 3048 3048 3047 3046 3045 3044 3044 3044
3041 3044 3045 3044 3044 3044 3035 3034 3034 3033 3034 3036 3038 3042 3046 3048 3050 3052 3052 3052 3052 3051 3050 3048 3047 3046 3044 3043 3043 3042 3043 3044 3044 3046 3046 3045 3045 3045 3044 3043 3042 3042 3041 3040
3039 3041 3041 3041 3039 3034 3030 3030 3030 3030 3030 3030 3033 3036 3040 3042 3044 3047 3048 3048 3048 3047 3045 3044 3043 3042 3039 3038 3038 3037 3038 3039 3041 3041 3041 3042 3042 3041 3041 3041 3041 3041 3040 3039
3035 3037 3039 3038 3037 3033 3028 3028 3028 3028 3027 3026 3027 3032 3035 3038 3040 3043 3043 3044 3044 3044 3043 3041 3040 3038 3035 3034 3033 3032 3033 3034 3035 3037 3038 3039 3039 3040 3040 3040 3040 3040 3040 3040
3031 3032 3034 3035 3034 3027 3025 3026 3026 3028 3029 3024 3025 3029 3032 3035 3038 3040 3040 3041 3040 3040 3039 3038 3036 3034 3032 3031 3030 3030 3031 3032 3032 3033 3035 3037 3037 3038 3038 3039 3040 3040 3039 3039
3026 3028 3029 3031 3032 3026 3021 3024 3025 3025 3024 3025 3026 3028 3030 3033 3035 3037 3038 3038 3038 3037 3036 3036 3034 3032 3030 3029 3029 3029 3029 3030 3031 3032 3034 3035 3036 3037 3036 3037 3038 3039 3038 3038
3023 3021 3022 3023 3021 3021 3020 3021 3021 3022 3025 3026 3027 3028 3029 3031 3033 3034 3034 3035 3035 3035 3033 3032 3032 3031 3030 3030 3030 3029 3029 3029 3031 3032 3033 3034 3034 3035 3035 3035 3036 3037 3037 3036
3018 3018 3018 3019 3017 3017 3018 3019 3020 3020 3022 3023 3025 3025 3026 3027 3028 3030 3031 3032 3032 3032 3032 3031 3030 3029 3029 3029 3029 3029 3029 3029 3031 3032 3032 3032 3033 3033 3034 3034 3034 3034 3034 3033
3014 3015 3014 3013 3014 3015 3015 3016 3016 3017 3018 3020 3021 3022 3023 3024 3025 3025 3026 3027 3028 3029 3029 3028 3028 3026 3026 3027 3027 3028 3027 3028 3028 3029 3030 3031 3031 3032 3032 3032 3032 3031 3031 3030
3008 3009 3010 3010 3011 3011 3012 3013 3014 3014 3015 3017 3017 3018 3018 3019 3021 3022 3023 3023 3024 3025 3024 3024 3024 3024 3024 3024 3025 3025 3024 3025 3025 3026 3027 3027 3028 3029 3029 3029 3029 3028 3027 3026